Weather History for Haleyville, AL

Change the Weather History Date:

Friday, September 6, 2013

  Actual Average (KJFX) Record (KJFX)
Temperature  
Mean Temperature 74 °F -  
Max Temperature 88 °F 87 °F 100 °F (1960)
Min Temperature 61 °F 62 °F 47 °F (1984)
Cooling Degree Days 10    
Growing Degree Days 24 (Base 50)    
Moisture  
Dew Point 65 °F    
Average Humidity 82    
Maximum Humidity 100    
Minimum Humidity 44    
Precipitation  
Precipitation 0.00 in - - ()
Sea Level Pressure  
Sea Level Pressure 30.18 in    
Wind  
Wind Speed 0 mph (East)    
Max Wind Speed 5 mph    
Max Gust Speed -    
Visibility 7 miles    
Events      
Averages and records for this station are not official NWS values.
T = Trace of Precipitation, MM = Missing Value Source: NWS Daily Summary

Daily Weather History Graph

Daily Weather History Graph

Search for Another Location

Airport:

Trip Planner

Search our weather history database for the weather conditions in past years. The results will help you decide how hot, cold, wet, or windy it might be!

Date:

Astronomy

Sep. 06, 2013 Rise Set
Actual Time 6:27 AM CDT 7:09 PM CDT
Civil Twilight 6:02 AM CDT 7:34 PM CDT
Nautical Twilight 5:32 AM CDT 8:04 PM CDT
Astronomical Twilight 5:01 AM CDT 8:35 PM CDT
Moon 7:33 AM CDT (9/6) 7:40 PM CDT (9/6)
Length of Visible Light 13h 32m
Length of Day
12h 41m
New Moon, 2% of the Moon is Illuminated
Sep 6
New Moon
Sep 12
First Quarter
Sep 19
Full
Sep 26
Last Quarter
Oct 4
New

Hourly Weather History & Observations

Time (CDT) Temp. Heat Index Dew Point Humidity Pressure Visibility Wind Dir Wind Speed Gust Speed Precip Events Conditions
12:19 AM 64.4 °F - 64.4 °F 100% 30.18 in 1.8 mi Calm Calm - N/A   Clear
12:25 AM 64.4 °F - 64.4 °F 100% 30.18 in 3.0 mi Calm Calm - N/A   Clear
12:56 AM 63.9 °F - 63.9 °F 100% 30.21 in 4.0 mi Calm Calm - N/A   Clear
1:06 AM 64.4 °F - 64.4 °F 100% 30.17 in 2.5 mi Calm Calm - N/A   Clear
1:15 AM 64.4 °F - 64.4 °F 100% 30.17 in 3.0 mi Calm Calm - N/A   Clear
1:56 AM 63.0 °F - 63.0 °F 100% 30.20 in 4.0 mi Calm Calm - N/A   Clear
2:56 AM 61.9 °F - 61.9 °F 100% 30.19 in 6.0 mi Calm Calm - N/A   Clear
3:56 AM 61.9 °F - 61.9 °F 100% 30.19 in 5.0 mi Calm Calm - N/A   Clear
4:56 AM 61.9 °F - 61.9 °F 100% 30.19 in 6.0 mi Calm Calm - N/A   Clear
5:56 AM 61.9 °F - 61.9 °F 100% 30.19 in 5.0 mi Calm Calm - N/A   Clear
6:56 AM 63.0 °F - 63.0 °F 100% 30.20 in 9.0 mi Calm Calm - N/A   Clear
7:56 AM 68.0 °F - 64.9 °F 90% 30.22 in 10.0 mi Calm Calm - N/A   Clear
8:56 AM 74.8 °F - 66.9 °F 76% 30.22 in 10.0 mi Calm Calm - N/A   Clear
9:56 AM 79.0 °F - 64.9 °F 62% 30.23 in 10.0 mi East 4.6 mph - N/A   Clear
10:56 AM 81.0 °F 82.7 °F 64.9 °F 58% 30.23 in 10.0 mi Calm Calm - N/A   Clear
11:56 AM 83.8 °F 86.5 °F 66.9 °F 57% 30.22 in 10.0 mi Variable 3.5 mph - N/A   Clear
12:56 PM 86.9 °F 88.9 °F 65.8 °F 49% 30.21 in 10.0 mi Calm Calm - N/A   Clear
1:56 PM 88.0 °F 89.6 °F 64.9 °F 46% 30.18 in 10.0 mi Variable 4.6 mph - N/A   Clear
2:56 PM 88.0 °F 89.0 °F 63.9 °F 44% 30.17 in 10.0 mi Calm Calm - N/A   Clear
3:56 PM 88.0 °F 90.3 °F 65.8 °F 48% 30.15 in 10.0 mi ESE 3.5 mph - N/A   Clear
4:56 PM 86.9 °F 88.9 °F 65.8 °F 49% 30.14 in 10.0 mi Calm Calm - N/A   Clear
5:56 PM 84.9 °F 88.2 °F 68.0 °F 57% 30.14 in 10.0 mi Calm Calm - N/A   Clear
6:56 PM 77.0 °F - 70.9 °F 81% 30.14 in 10.0 mi Calm Calm - N/A   Clear
7:56 PM 72.0 °F - 70.0 °F 93% 30.14 in 10.0 mi Calm Calm - N/A   Clear
8:56 PM 70.0 °F - 68.9 °F 96% 30.15 in 10.0 mi Calm Calm - N/A   Clear
9:56 PM 68.9 °F - 68.9 °F 100% 30.16 in 6.0 mi Calm Calm - N/A   Clear
10:56 PM 66.9 °F - 66.9 °F 100% 30.16 in 6.0 mi Calm Calm - N/A   Clear
11:56 PM 65.8 °F - 65.8 °F 100% 30.15 in 7.0 mi Calm Calm - N/A   Clear